Weather in Redkaya Dubrava

Russia / Altai Krai     53°16′35″N   79°02′49″E
temp.,
°C
wind,
m/s
gust,
m/s
humid.,
%
clouds,
%
prec.,
mm/h
press.,
hPa
HPBL,
m
21 june, mon
mon2101:00+14s91368100 0.3 1001969
04:00+12s81485100 2.4 998768
07:00+12wsw8118771 6.4 998700
10:00+13w7106218 0.0 10011259
13:00+16wsw695098 0.0 10031825
16:00+15sw7955100 0.1 10041638
19:00+13ssw3463100 0.3 1005805
22:00+11nne1275100 0.4 1005141
22 june, tue
tue2201:00+9ne2392100 2.4 1005172
04:00+9nw4795100 4.6 1005292
07:00+10nw71294100 10.3 1005801
10:00+9nw81395100 6.9 1007662
13:00+11nnw61089100 8.2 1009778
16:00+11nnw71084100 1.1 1012855
19:00+12nw4876100 1.1 1014609
22:00+10w368531 0.0 101595
23 june, wed
wed2301:00+8w478476 0.0 1015111
04:00+8wsw2383100 0.0 101425
07:00+9ssw2390100 0.5 1014127
10:00+13wsw4664100 0.5 1012777
13:00+15sw7659100 1.3 10121374
16:00+12wsw3480100 0.9 1011388
19:00+10ene3492100 4.8 1009266
22:00+10ne6995100 5.7 1007472
24 june, thu
thu2401:00+9nne71195100 14.9 1004668
04:00+9nnw81395100 4.6 1002620
07:00+9nw101495100 12.5 1002831
10:00+9nw91495100 4.6 1003760
13:00+9nw81395100 7.4 1006633
16:00+10nw81394100 4.4 1007735
19:00+11nw71291100 6.7 1009588
22:00+11wnw5985100 0.1 1010277
25 june, fri
fri2501:00+10w4889100 0.1 1010147
04:00+8wnw489395 0.0 1010169
07:00+9wnw489185 0.0 1011257
10:00+12nw6877100 0.0 1012727
13:00+13nnw5871100 0.4 10121306
16:00+16nw5763100 0.3 10121236
19:00+15nw4669100 1.3 1012798
22:00+12wnw3580100 0.4 101395